Tracking 31027 objects as of 19-Jul-2025
HD Live streaming from Space Station
objects crossing your sky now

STARLINK-11475

Track STARLINK-11475 now!
10-day predictions
STARLINK-11475 is classified as:


NORAD ID: 62226
Int'l Code: 2024-231J
Perigee: 365.8 km
Apogee: 367.7 km
Inclination: 53.2 °
Period: 91.7 minutes
Semi major axis: 6737 km
RCS: Unknown
Launch date: December 5, 2024
Source: United States (US)
Launch site: AIR FORCE WESTERN TEST RANGE (AFWTR)
Your satellite tracking list
STARLINK-3349
Track 1 satellite(s)




NASA's NSSDC Master Catalog

Two Line Element Set (TLE):
1 62226U 24231J   25199.25912164  .00025042  00000-0  21060-3 0  9991
2 62226  53.1559 176.7674 0001375 121.8000 238.3152 15.69748105 36597
Source of the keplerian elements: AFSPC